EWR2271 FMNA-FMCZ

Flight info

Callsign EWR2271
Flight time 1h 10m
Altitude 32000
Route MAROF
Aircraft A319/M-SDE3FGHIRWY/LB1

Departure

Time 2026-04-28 18:26
Airport Arrachart Airport (FMNA)

Arrival

Time 2026-04-28 19:37
Airport Dzaoudzi Pamandzi International Airport (FMCZ)
Time Latitude Longitude Altitude Speed Heading
2026-04-28 18:16 -12.35056 49.29522 383 ft 0 kts 148°
2026-04-28 18:22 -12.35060 49.29518 383 ft 1 kts 215°
2026-04-28 18:22 -12.35063 49.29474 381 ft 10 kts 243°
2026-04-28 18:22 -12.35087 49.29393 378 ft 16 kts 301°
2026-04-28 18:22 -12.35015 49.29289 374 ft 16 kts 304°
2026-04-28 18:23 -12.34943 49.29176 371 ft 22 kts 303°
2026-04-28 18:23 -12.34863 49.29052 363 ft 16 kts 304°
2026-04-28 18:23 -12.34792 49.28947 359 ft 19 kts 304°
2026-04-28 18:23 -12.34727 49.28852 350 ft 17 kts 305°
2026-04-28 18:24 -12.34652 49.28737 338 ft 20 kts 303°
2026-04-28 18:24 -12.34603 49.28667 335 ft 15 kts 316°
2026-04-28 18:24 -12.34565 49.28601 331 ft 6 kts 171°
2026-04-28 18:24 -12.34577 49.28618 335 ft 1 kts 122°
2026-04-28 18:25 -12.34550 49.28574 333 ft 8 kts 124°
2026-04-28 18:25 -12.34544 49.28566 327 ft 0 kts 127°
2026-04-28 18:25 -12.34548 49.28573 329 ft 11 kts 123°
2026-04-28 18:26 -12.35068 49.29364 377 ft 119 kts 124°
2026-04-28 18:26 -12.35633 49.30173 581 ft 152 kts 126°
2026-04-28 18:26 -12.36218 49.31032 1249 ft 147 kts 123°
2026-04-28 18:26 -12.36788 49.31911 1711 ft 153 kts 123°
2026-04-28 18:27 -12.37437 49.32875 2000 ft 176 kts 129°
2026-04-28 18:27 -12.38593 49.33443 2205 ft 202 kts 177°
2026-04-28 18:27 -12.39977 49.32918 2436 ft 234 kts 222°
2026-04-28 18:27 -12.40812 49.31393 2891 ft 263 kts 255°
2026-04-28 18:28 -12.40974 49.29478 3693 ft 276 kts 270°
2026-04-28 18:28 -12.40860 49.27493 4705 ft 281 kts 274°
2026-04-28 18:28 -12.40675 49.25493 5733 ft 284 kts 274°
2026-04-28 18:28 -12.40502 49.23469 6713 ft 286 kts 272°
2026-04-28 18:29 -12.40364 49.21430 7648 ft 290 kts 271°
2026-04-28 18:29 -12.40260 49.19355 8517 ft 294 kts 270°
2026-04-28 18:29 -12.40184 49.17253 9363 ft 297 kts 270°
2026-04-28 18:29 -12.40125 49.15118 10128 ft 304 kts 270°
2026-04-28 18:30 -12.40073 49.12872 10408 ft 327 kts 270°
2026-04-28 18:30 -12.40056 49.12082 10556 ft 331 kts 270°
2026-04-28 18:30 -12.39964 49.08102 11620 ft 342 kts 271°
2026-04-28 18:30 -12.39904 49.05667 11837 ft 342 kts 271°
2026-04-28 18:31 -12.39841 49.03235 11893 ft 342 kts 271°
2026-04-28 18:31 -12.39776 49.00798 11897 ft 342 kts 271°
2026-04-28 18:31 -12.39713 48.98373 11901 ft 341 kts 271°
2026-04-28 18:31 -12.39652 48.95943 11896 ft 341 kts 271°
2026-04-28 18:32 -12.39593 48.93514 11896 ft 342 kts 271°
2026-04-28 18:32 -12.39532 48.91081 11901 ft 341 kts 271°
2026-04-28 18:32 -12.39470 48.88677 11911 ft 342 kts 271°
2026-04-28 18:32 -12.39405 48.86249 11898 ft 342 kts 271°
2026-04-28 18:33 -12.39341 48.83820 11900 ft 342 kts 271°
2026-04-28 18:33 -12.39278 48.81392 11898 ft 342 kts 271°
2026-04-28 18:33 -12.39216 48.78959 11903 ft 342 kts 271°
2026-04-28 18:33 -12.39152 48.76524 11896 ft 342 kts 271°
2026-04-28 18:34 -12.39087 48.74092 11895 ft 342 kts 271°
2026-04-28 18:34 -12.39022 48.71662 11900 ft 342 kts 271°
2026-04-28 18:34 -12.38959 48.69233 11896 ft 342 kts 271°
2026-04-28 18:34 -12.38896 48.66802 11902 ft 341 kts 271°
2026-04-28 18:35 -12.38830 48.64369 11895 ft 342 kts 271°
2026-04-28 18:35 -12.38763 48.61943 11898 ft 341 kts 271°
2026-04-28 18:35 -12.38698 48.59511 11905 ft 342 kts 271°
2026-04-28 18:35 -12.38635 48.57082 11897 ft 342 kts 271°
2026-04-28 18:36 -12.38569 48.54651 11896 ft 341 kts 271°
2026-04-28 18:36 -12.38523 48.53044 11894 ft 341 kts 271°
2026-04-28 18:36 -12.38454 48.50613 11910 ft 342 kts 271°
2026-04-28 18:36 -12.38388 48.48183 11902 ft 342 kts 271°
2026-04-28 18:37 -12.38322 48.45757 11896 ft 342 kts 271°
2026-04-28 18:37 -12.38231 48.42533 11901 ft 341 kts 271°
2026-04-28 18:37 -12.38185 48.40893 11895 ft 341 kts 271°
2026-04-28 18:37 -12.38118 48.38468 11898 ft 341 kts 271°
2026-04-28 18:38 -12.38054 48.36037 11897 ft 341 kts 271°
2026-04-28 18:38 -12.37989 48.33614 11904 ft 341 kts 271°
2026-04-28 18:38 -12.37922 48.31209 11881 ft 332 kts 271°
2026-04-28 18:38 -12.37856 48.28894 11755 ft 319 kts 271°
2026-04-28 18:39 -12.37792 48.26684 11535 ft 311 kts 271°
2026-04-28 18:39 -12.37729 48.24482 11183 ft 308 kts 271°
2026-04-28 18:39 -12.37668 48.22300 10791 ft 306 kts 271°
2026-04-28 18:39 -12.37608 48.20126 10395 ft 305 kts 271°
2026-04-28 18:40 -12.37547 48.17962 10006 ft 304 kts 271°
2026-04-28 18:40 -12.37483 48.15806 9695 ft 300 kts 271°
2026-04-28 18:40 -12.37421 48.13708 9566 ft 290 kts 271°
2026-04-28 18:40 -12.37361 48.11680 9438 ft 280 kts 270°
2026-04-28 18:41 -12.37304 48.09715 9312 ft 271 kts 270°
2026-04-28 18:41 -12.37250 48.07815 9186 ft 263 kts 270°
2026-04-28 18:41 -12.37197 48.05968 9059 ft 256 kts 270°
2026-04-28 18:41 -12.37146 48.04175 8932 ft 247 kts 270°
2026-04-28 18:42 -12.37096 48.02444 8791 ft 240 kts 270°
2026-04-28 18:42 -12.37047 48.00750 8546 ft 237 kts 270°
2026-04-28 18:42 -12.36998 47.99070 8266 ft 236 kts 270°
2026-04-28 18:42 -12.36946 47.97396 7981 ft 235 kts 270°
2026-04-28 18:43 -12.36896 47.95751 7679 ft 234 kts 270°
2026-04-28 18:43 -12.36846 47.94086 7388 ft 233 kts 270°
2026-04-28 18:43 -12.36797 47.92428 7103 ft 232 kts 270°
2026-04-28 18:43 -12.36749 47.90782 6817 ft 231 kts 270°
2026-04-28 18:44 -12.36700 47.89140 6527 ft 230 kts 270°
2026-04-28 18:44 -12.36605 47.85884 5983 ft 227 kts 270°
2026-04-28 18:44 -12.36558 47.84267 5691 ft 226 kts 270°
2026-04-28 18:45 -12.36510 47.82660 5389 ft 226 kts 270°
2026-04-28 18:45 -12.36466 47.81077 5104 ft 225 kts 270°
2026-04-28 18:45 -12.36421 47.79470 4824 ft 226 kts 270°
2026-04-28 18:45 -12.36373 47.77866 4523 ft 224 kts 270°
2026-04-28 18:46 -12.36327 47.76271 4231 ft 224 kts 270°
2026-04-28 18:46 -12.36281 47.74682 3963 ft 222 kts 271°
2026-04-28 18:46 -12.36234 47.73116 3893 ft 222 kts 271°
2026-04-28 18:46 -12.36186 47.71532 3896 ft 224 kts 271°
2026-04-28 18:47 -12.36136 47.69943 3894 ft 223 kts 271°
2026-04-28 18:47 -12.36089 47.68355 3898 ft 224 kts 271°
2026-04-28 18:47 -12.36042 47.66766 3905 ft 223 kts 271°
2026-04-28 18:47 -12.35990 47.65176 3904 ft 223 kts 271°
2026-04-28 18:48 -12.35940 47.63588 3907 ft 224 kts 271°
2026-04-28 18:48 -12.35890 47.61991 3907 ft 223 kts 271°
2026-04-28 18:48 -12.35841 47.60423 3905 ft 223 kts 270°
2026-04-28 18:48 -12.35794 47.58835 3905 ft 224 kts 271°
2026-04-28 18:49 -12.35746 47.57238 3906 ft 223 kts 271°
2026-04-28 18:49 -12.35713 47.56184 3904 ft 224 kts 271°
2026-04-28 18:49 -12.35648 47.54057 3905 ft 223 kts 271°
2026-04-28 18:49 -12.35599 47.52486 3906 ft 224 kts 271°
2026-04-28 18:50 -12.35549 47.50895 3907 ft 224 kts 271°
2026-04-28 18:50 -12.35500 47.49308 3906 ft 223 kts 271°
2026-04-28 18:50 -12.35450 47.47718 3905 ft 223 kts 271°
2026-04-28 18:50 -12.35401 47.46128 3906 ft 223 kts 271°
2026-04-28 18:51 -12.35351 47.44543 3905 ft 223 kts 271°
2026-04-28 18:51 -12.35302 47.42955 3904 ft 224 kts 271°
2026-04-28 18:51 -12.35255 47.41371 3904 ft 222 kts 271°
2026-04-28 18:51 -12.35205 47.39782 3905 ft 224 kts 271°
2026-04-28 18:52 -12.35153 47.38195 3907 ft 223 kts 271°
2026-04-28 18:52 -12.35103 47.36606 3905 ft 223 kts 271°
2026-04-28 18:52 -12.35055 47.35020 3906 ft 223 kts 271°
2026-04-28 18:52 -12.35007 47.33436 3904 ft 223 kts 271°
2026-04-28 18:53 -12.34957 47.31852 3903 ft 222 kts 271°
2026-04-28 18:53 -12.34908 47.30288 3905 ft 222 kts 271°
2026-04-28 18:53 -12.34857 47.28706 3906 ft 222 kts 271°
2026-04-28 18:53 -12.34805 47.27125 3907 ft 222 kts 271°
2026-04-28 18:54 -12.34753 47.25569 3909 ft 217 kts 271°
2026-04-28 18:54 -12.34704 47.24032 3906 ft 216 kts 271°
2026-04-28 18:54 -12.34656 47.22491 3911 ft 217 kts 271°
2026-04-28 18:54 -12.34609 47.20948 3908 ft 217 kts 271°
2026-04-28 18:55 -12.34559 47.19411 3904 ft 216 kts 271°
2026-04-28 18:55 -12.34527 47.18392 3906 ft 216 kts 271°
2026-04-28 18:55 -12.34459 47.16332 3912 ft 216 kts 271°
2026-04-28 18:55 -12.34405 47.14797 3915 ft 216 kts 271°
2026-04-28 18:56 -12.34354 47.13264 3915 ft 216 kts 271°
2026-04-28 18:56 -12.34302 47.11727 3916 ft 216 kts 271°
2026-04-28 18:56 -12.34251 47.10190 3916 ft 216 kts 271°
2026-04-28 18:56 -12.34203 47.08657 3915 ft 215 kts 271°
2026-04-28 18:57 -12.34159 47.07147 3915 ft 215 kts 271°
2026-04-28 18:57 -12.34112 47.05611 3915 ft 215 kts 271°
2026-04-28 18:57 -12.34063 47.04081 3914 ft 214 kts 271°
2026-04-28 18:57 -12.34014 47.02556 3916 ft 215 kts 271°
2026-04-28 18:58 -12.33963 47.01027 3922 ft 215 kts 271°
2026-04-28 18:58 -12.33913 46.99499 3924 ft 214 kts 271°
2026-04-28 18:58 -12.33862 46.97971 3925 ft 215 kts 271°
2026-04-28 18:58 -12.33807 46.96446 3939 ft 215 kts 271°
2026-04-28 18:59 -12.33753 46.94918 3928 ft 215 kts 271°
2026-04-28 18:59 -12.33704 46.93406 3925 ft 215 kts 271°
2026-04-28 18:59 -12.33657 46.91876 3926 ft 215 kts 271°
2026-04-28 18:59 -12.33609 46.90351 3924 ft 214 kts 271°
2026-04-28 19:00 -12.33558 46.88827 3924 ft 214 kts 271°
2026-04-28 19:00 -12.33504 46.87306 3927 ft 214 kts 271°
2026-04-28 19:00 -12.33450 46.85786 3925 ft 214 kts 272°
2026-04-28 19:00 -12.33397 46.84264 3924 ft 214 kts 271°
2026-04-28 19:01 -12.33346 46.82747 3924 ft 214 kts 271°
2026-04-28 19:01 -12.33297 46.81223 3923 ft 214 kts 271°
2026-04-28 19:01 -12.33245 46.79703 3925 ft 214 kts 271°
2026-04-28 19:01 -12.33193 46.78185 3925 ft 214 kts 271°
2026-04-28 19:02 -12.33142 46.76668 3926 ft 213 kts 271°
2026-04-28 19:02 -12.33093 46.75149 3925 ft 214 kts 271°
2026-04-28 19:02 -12.33042 46.73628 3925 ft 214 kts 271°
2026-04-28 19:02 -12.32990 46.72104 3925 ft 214 kts 271°
2026-04-28 19:03 -12.32940 46.70580 3924 ft 214 kts 271°
2026-04-28 19:03 -12.32889 46.69062 3923 ft 214 kts 271°
2026-04-28 19:03 -12.32840 46.67541 3925 ft 213 kts 271°
2026-04-28 19:03 -12.32788 46.66041 3925 ft 213 kts 272°
2026-04-28 19:04 -12.32732 46.64524 3932 ft 213 kts 272°
2026-04-28 19:04 -12.32680 46.63015 3935 ft 213 kts 272°
2026-04-28 19:04 -12.32625 46.61501 3934 ft 213 kts 271°
2026-04-28 19:04 -12.32575 46.59988 3933 ft 213 kts 271°
2026-04-28 19:05 -12.32526 46.58468 3933 ft 214 kts 271°
2026-04-28 19:05 -12.32471 46.56950 3934 ft 214 kts 272°
2026-04-28 19:05 -12.32418 46.55433 3933 ft 213 kts 272°
2026-04-28 19:05 -12.32366 46.53918 3933 ft 214 kts 272°
2026-04-28 19:06 -12.32315 46.52399 3933 ft 213 kts 272°
2026-04-28 19:06 -12.32280 46.51394 3931 ft 213 kts 272°
2026-04-28 19:06 -12.32211 46.49381 3933 ft 213 kts 272°
2026-04-28 19:06 -12.32161 46.47866 3936 ft 213 kts 271°
2026-04-28 19:07 -12.32109 46.46351 3935 ft 212 kts 271°
2026-04-28 19:07 -12.32058 46.44835 3932 ft 212 kts 272°
2026-04-28 19:07 -12.32006 46.43334 3934 ft 212 kts 272°
2026-04-28 19:07 -12.31956 46.41820 3935 ft 212 kts 272°
2026-04-28 19:08 -12.31905 46.40310 3935 ft 213 kts 272°
2026-04-28 19:08 -12.31854 46.38799 3935 ft 213 kts 272°
2026-04-28 19:08 -12.31799 46.37279 3935 ft 213 kts 272°
2026-04-28 19:08 -12.31743 46.35763 3933 ft 213 kts 272°
2026-04-28 19:09 -12.31686 46.34257 3932 ft 212 kts 272°
2026-04-28 19:09 -12.31630 46.32763 3932 ft 212 kts 272°
2026-04-28 19:09 -12.31575 46.31235 3931 ft 212 kts 272°
2026-04-28 19:09 -12.31523 46.29751 3932 ft 212 kts 272°
2026-04-28 19:10 -12.31470 46.28243 3932 ft 212 kts 272°
2026-04-28 19:10 -12.31417 46.26738 3933 ft 212 kts 272°
2026-04-28 19:10 -12.31367 46.25233 3935 ft 212 kts 271°
2026-04-28 19:10 -12.31317 46.23726 3935 ft 211 kts 271°
2026-04-28 19:11 -12.31264 46.22223 3942 ft 212 kts 272°
2026-04-28 19:11 -12.31211 46.20713 3946 ft 212 kts 272°
2026-04-28 19:11 -12.31158 46.19201 3946 ft 211 kts 272°
2026-04-28 19:11 -12.31103 46.17693 3939 ft 213 kts 272°
2026-04-28 19:12 -12.31047 46.16203 3943 ft 212 kts 272°
2026-04-28 19:12 -12.31022 46.14675 3942 ft 212 kts 268°
2026-04-28 19:12 -12.31150 46.13195 3942 ft 212 kts 261°
2026-04-28 19:12 -12.31440 46.11714 3945 ft 212 kts 255°
2026-04-28 19:13 -12.31857 46.10267 3943 ft 212 kts 253°
2026-04-28 19:13 -12.32286 46.08823 3944 ft 212 kts 253°
2026-04-28 19:13 -12.32716 46.07376 3943 ft 213 kts 252°
2026-04-28 19:13 -12.33149 46.05933 3943 ft 212 kts 252°
2026-04-28 19:14 -12.33578 46.04492 3943 ft 212 kts 253°
2026-04-28 19:14 -12.34010 46.03042 3944 ft 212 kts 253°
2026-04-28 19:14 -12.34440 46.01594 3943 ft 212 kts 253°
2026-04-28 19:14 -12.34867 46.00154 3945 ft 212 kts 253°
2026-04-28 19:15 -12.35295 45.98713 3942 ft 211 kts 253°
2026-04-28 19:15 -12.35718 45.97293 3944 ft 212 kts 253°
2026-04-28 19:15 -12.36148 45.95847 3944 ft 212 kts 253°
2026-04-28 19:15 -12.36293 45.95358 3944 ft 212 kts 253°
2026-04-28 19:16 -12.37002 45.92964 3939 ft 212 kts 253°
2026-04-28 19:16 -12.37429 45.91523 3942 ft 212 kts 253°
2026-04-28 19:16 -12.37857 45.90083 3942 ft 212 kts 253°
2026-04-28 19:16 -12.38140 45.89127 3941 ft 212 kts 253°
2026-04-28 19:17 -12.38565 45.87685 3942 ft 212 kts 252°
2026-04-28 19:17 -12.38991 45.86247 3945 ft 211 kts 253°
2026-04-28 19:17 -12.39418 45.84805 3947 ft 212 kts 253°
2026-04-28 19:17 -12.39845 45.83365 3943 ft 211 kts 253°
2026-04-28 19:18 -12.40274 45.81923 3946 ft 212 kts 253°
2026-04-28 19:18 -12.40702 45.80481 3945 ft 211 kts 252°
2026-04-28 19:18 -12.41116 45.79085 3892 ft 197 kts 253°
2026-04-28 19:18 -12.41501 45.77777 3562 ft 185 kts 253°
2026-04-28 19:19 -12.41863 45.76555 2895 ft 178 kts 252°
2026-04-28 19:19 -12.42221 45.75348 2224 ft 176 kts 253°
2026-04-28 19:19 -12.42575 45.74160 2080 ft 179 kts 253°
2026-04-28 19:19 -12.42939 45.72937 2059 ft 180 kts 253°
2026-04-28 19:20 -12.43301 45.71710 2059 ft 180 kts 253°
2026-04-28 19:20 -12.43663 45.70481 2058 ft 180 kts 253°
2026-04-28 19:20 -12.44026 45.69255 2055 ft 180 kts 253°
2026-04-28 19:20 -12.44389 45.68029 2058 ft 180 kts 253°
2026-04-28 19:21 -12.44752 45.66804 2059 ft 180 kts 253°
2026-04-28 19:21 -12.45115 45.65577 2054 ft 180 kts 253°
2026-04-28 19:21 -12.45476 45.64353 2057 ft 180 kts 253°
2026-04-28 19:21 -12.45837 45.63126 2056 ft 180 kts 253°
2026-04-28 19:22 -12.46200 45.61900 2057 ft 180 kts 253°
2026-04-28 19:22 -12.46441 45.61086 2056 ft 180 kts 253°
2026-04-28 19:22 -12.46925 45.59438 2058 ft 181 kts 253°
2026-04-28 19:22 -12.47282 45.58225 2058 ft 179 kts 253°
2026-04-28 19:23 -12.47643 45.57004 2058 ft 178 kts 253°
2026-04-28 19:23 -12.48004 45.55790 2056 ft 179 kts 252°
2026-04-28 19:23 -12.48362 45.54574 2056 ft 179 kts 253°
2026-04-28 19:23 -12.48721 45.53352 2054 ft 179 kts 253°
2026-04-28 19:24 -12.49082 45.52135 2056 ft 179 kts 253°
2026-04-28 19:24 -12.49441 45.50918 2058 ft 178 kts 253°
2026-04-28 19:24 -12.49801 45.49699 2056 ft 179 kts 253°
2026-04-28 19:24 -12.50163 45.48482 2057 ft 179 kts 252°
2026-04-28 19:25 -12.50527 45.47263 2056 ft 178 kts 252°
2026-04-28 19:25 -12.50880 45.46061 2060 ft 179 kts 253°
2026-04-28 19:25 -12.51238 45.44840 2058 ft 179 kts 253°
2026-04-28 19:25 -12.51598 45.43617 2051 ft 179 kts 253°
2026-04-28 19:26 -12.51958 45.42399 2055 ft 179 kts 252°
2026-04-28 19:26 -12.52319 45.41180 2056 ft 179 kts 252°
2026-04-28 19:26 -12.52677 45.39960 2059 ft 179 kts 253°
2026-04-28 19:26 -12.53036 45.38739 2057 ft 178 kts 253°
2026-04-28 19:27 -12.53393 45.37521 2058 ft 178 kts 252°
2026-04-28 19:27 -12.53751 45.36304 2057 ft 178 kts 252°
2026-04-28 19:27 -12.54108 45.35089 2057 ft 178 kts 252°
2026-04-28 19:27 -12.54466 45.33873 2058 ft 178 kts 252°
2026-04-28 19:28 -12.54823 45.32661 2056 ft 178 kts 252°
2026-04-28 19:28 -12.55181 45.31448 2057 ft 178 kts 252°
2026-04-28 19:28 -12.55533 45.30249 2055 ft 178 kts 252°
2026-04-28 19:28 -12.55892 45.29027 2056 ft 178 kts 252°
2026-04-28 19:29 -12.56252 45.27809 2056 ft 178 kts 252°
2026-04-28 19:29 -12.56493 45.26990 2056 ft 178 kts 252°
2026-04-28 19:29 -12.56962 45.25383 2058 ft 178 kts 253°
2026-04-28 19:29 -12.57318 45.24169 2059 ft 178 kts 252°
2026-04-28 19:30 -12.57676 45.22956 2061 ft 179 kts 252°
2026-04-28 19:30 -12.58037 45.21737 2058 ft 178 kts 252°
2026-04-28 19:30 -12.58394 45.20522 2057 ft 178 kts 252°
2026-04-28 19:30 -12.58748 45.19313 2058 ft 177 kts 252°
2026-04-28 19:31 -12.59209 45.18151 2056 ft 177 kts 236°
2026-04-28 19:31 -12.60120 45.17317 2056 ft 177 kts 208°
2026-04-28 19:31 -12.61305 45.17007 2056 ft 177 kts 182°
2026-04-28 19:31 -12.62484 45.17273 2057 ft 177 kts 156°
2026-04-28 19:32 -12.63555 45.17903 2061 ft 178 kts 150°
2026-04-28 19:32 -12.64627 45.18538 2060 ft 178 kts 150°
2026-04-28 19:32 -12.65702 45.19174 2062 ft 178 kts 150°
2026-04-28 19:32 -12.66771 45.19807 2059 ft 177 kts 152°
2026-04-28 19:33 -12.67844 45.20441 2058 ft 178 kts 152°
2026-04-28 19:33 -12.68912 45.21072 2058 ft 177 kts 152°
2026-04-28 19:33 -12.69981 45.21708 2063 ft 178 kts 151°
2026-04-28 19:33 -12.71042 45.22338 2051 ft 173 kts 152°
2026-04-28 19:34 -12.72055 45.22941 2053 ft 166 kts 152°
2026-04-28 19:34 -12.73036 45.23519 2057 ft 163 kts 152°
2026-04-28 19:34 -12.74010 45.24104 2000 ft 161 kts 151°
2026-04-28 19:34 -12.74908 45.24662 1748 ft 144 kts 151°
2026-04-28 19:35 -12.75746 45.25182 1402 ft 138 kts 151°
2026-04-28 19:35 -12.76554 45.25679 1049 ft 133 kts 152°
2026-04-28 19:35 -12.77337 45.26155 698 ft 129 kts 152°
2026-04-28 19:35 -12.78112 45.26587 486 ft 126 kts 155°
2026-04-28 19:36 -12.78871 45.27037 336 ft 126 kts 151°
2026-04-28 19:36 -12.79639 45.27467 195 ft 126 kts 154°
2026-04-28 19:36 -12.80397 45.27905 23 ft 117 kts 151°
2026-04-28 19:36 -12.80972 45.28248 16 ft 62 kts 150°
2026-04-28 19:37 -12.81142 45.28343 20 ft 10 kts 157°
2026-04-28 19:37 -12.81161 45.28367 18 ft 4 kts 69°
2026-04-28 19:37 -12.81122 45.28351 20 ft 7 kts 330°
2026-04-28 19:37 -12.81061 45.28315 17 ft 12 kts 330°
2026-04-28 19:38 -12.80975 45.28263 18 ft 16 kts 328°
2026-04-28 19:38 -12.80871 45.28197 17 ft 18 kts 328°
2026-04-28 19:38 -12.80764 45.28129 16 ft 19 kts 328°
2026-04-28 19:38 -12.80657 45.28082 16 ft 11 kts 22°
2026-04-28 19:39 -12.80619 45.28133 16 ft 10 kts 44°
2026-04-28 19:39 -12.80565 45.28166 14 ft 8 kts 61°
2026-04-28 19:39 -12.80561 45.28173 13 ft 0 kts 61°